星链-11623 (STARLINK-11623)

导读 | 星芒AI

STARLINK-11623 是 SpaceX 星链计划中的一颗低轨通信卫星,属于第 5 批星链卫星(v1.0 版本)。该卫星于 2020 年 11 月 18 日由猎鹰 9 号火箭从卡纳维拉尔角发射升空,部署在约 550 公里的轨道高度,用于提供全球宽带互联网服务。它采用标准化设计,配备有可展开的太阳能板和激光通信终端,支持高速、低延迟的网络连接。作为星链星座的一部分,STARLINK-11623 有助于扩大 SpaceX 在全球卫星互联网市场的覆盖能力。

基本信息
目录编号:
63276
目录名称:
STARLINK-11623
国际标识:
2025-053M
轨道中心:
EARTH
卫星名称:
星链-11623
卫星全名:
星链-11623 (STARLINK-11623)
卫星状态:
在轨 (已飞行233 天)
发射日期:
2025-03-15 UTC
国别 :
美国 (US)
星等 :
--
轨道信息
数据来源 国际轨道数据
星历时间: 2025-11-02T15:40:00+0800
1天前
查看轨道信息
半长轴: 6734.225km
偏心率: 0.0001995
轨道倾角: 43.000°
近地点辐角 280.959°
升交点赤经 160.319°
平近点角 79.105°
近地点: 354.746km
远地点: 357.434km
周期: 91.662分钟
每日圈数: 15.709827
详细信息
固有亮度:
5
最大亮度:
2.5
卫星平台:
Starlink V1.0
覆盖范围:
全球
运营商:
太空探索技术公司
运营商所在国:
美国
制造商(研发单位):
太空探索技术公司
制造商所在国:
美国
使用方式:
暂无
卫星简介
Starlink 计划是 SpaceX 推出的全球卫星互联网项目,通过发射低轨道卫星,为全球尤其是偏远地区提供高速、低延迟的互联网服务。自 2019 年起,Starlink 已部署数千颗卫星,旨在缩小全球数字鸿沟,推动互联网普及。该项目还为军事、航空等行业提供通信支持,带来广泛经济效益。
2D轨道图
3D轨道图
轨道高度分析图
轨道倾角分析图
轨道综合分析图
查看轨道综合分析图